{"data":{"norad_id":60907,"epoch":"2026-09-21T16:13:34.934592Z","epoch_age_seconds":86812,"freshness":"FRESH","line1":"1 60907U 24154E   26264.67609878  .00000469  00000+0  87153-5 0  9996","line2":"2 60907  53.1590 245.3155 0000101 307.4797  52.6211 15.69715386119291","mean_motion":15.69715386,"eccentricity":1.01e-5,"inclination_deg":53.159,"raan_deg":245.3155,"arg_perigee_deg":307.4797,"mean_anomaly_deg":52.6211,"bstar":8.7153e-6,"rev_number":11929,"period_min":91.736375450167,"perigee_km":359.64328552529,"apogee_km":359.77939006171,"semimajor_km":6737.8483377935,"source":"CELESTRAK","updated_at":"2026-09-22T09:00:49.283179Z"}}